User: anonymous   Login
Location: Unspecified
(0.0000°N, 0.0000°E)
Time: 23:36:22
(UTC+02:00)
Language:

Ariane H10 - Orbit

View from above orbital plane
View from above orbital plane
View from above satellite
View from above satellite

Ground track
Ground track

The orbit data is extracted from the following two-line orbital elements,

1 21727U 91067B   16242.06215439 -.00000163  00000-0  27791-3 0  9997
2 21727   4.2205  89.2801 7183060 275.2854  13.7216  2.31850770171169
Epoch (UTC): 29 August 2016 01:29:30
Eccentricity: 0.7183060
inclination: 4.2205°
perigee height: 414 km
apogee height: 35056 km
right ascension of ascending node: 89.2801°
argument of perigee: 275.2854°
revolutions per day: 2.31850770
mean anomaly at epoch: 13.7216°
orbit number at epoch: 17116

The dashed part of the orbit path shows where the satellite is in the earth's shadow,  

DLR